Disclaimer

Please do not use the information listed here in-flight or in-navigation, as they are not provided to us by the airports but are provided by volunteers, so they might be outdated.

Search


Regions


Airport information page

No radio frequency information is available.

Airport informations:
Latitude: 11° 32' 47.60" N
Longitude: 104° 50' 38.90" E
Elevation: 40 feet - 12 meters
Operating hours: Remarks
Operating agency: Military-civil joint use airport
Timezone: UTC+7
Fuel: Jet A1, without icing nhibitor.

Aviation Gasoline (AVGAS), octane unknown.

Runway information:
05/23 - 9843 x 144 feet< - >3000 x 44 meters

Recent METARs:
VDPP 192300Z VRB02KT 9000 FEW017 24/20 Q1011
VDPP 192330Z VRB02KT 9000 FEW017 24/21 Q1011
VDPP 200000Z 31003KT 9000 FEW017 24/21 Q1011

Airport on the map: